Location: ?????????
(55.6553°N, 38.9075°E)
Time: 06:00:40
(UTC+00:00)

NOSS 2-3 (D) - Pass Details

Date: 18 October 2019
Orbit: 597 x 1615 km, 63.4° (Epoch: 09 November)

Event Time Altitude Azimuth Distance (km) Brightness Sun altitude
Exits shadow 01:16:42 47° 306° (NW) 1,031 4.4 -23.5°
Maximum altitude 01:17:34 52° 338° (NNW) 992 4.5 -23.4°
Drops below altitude 10° 01:23:33 10° 55° (NE) 2,700 7.8 -22.6°
Sets 01:26:33 0° 60° (ENE) 3,824 9.0 -22.2°
